This demonstration page uses our WeatherBlox Daily Observations layout. Learn more.

Left ArrowRight Arrow

41.86663, -103.66717

Hourly Observations for May 13, 2018

Temp ( °F °C ) Dew Point ( °F °C ) Humidity (%) Winds ( mph kmh ) Pressure ( in mb ) Visibility ( mi km ) Precip ( " mm )
12:18 am 00:18 Cloudy 46 8 46 8 100 100 E 16 26 30.03 1017 10 16 0.00 0.00
12:29 am 00:29 Cloudy 47 8.3 47 8.3 100 100 E 14 22 30.00 1016 10 16 0.01 0.25
12:43 am 00:43 Cloudy 48 8.9 48 8.9 100 100 ESE 3 6 30.00 1016 10 16 0.01 0.25
12:53 am 00:53 Cloudy with Light Rain 48 8.9 48 8.9 100 100 E 8 13 30.01 1016 10 16 0.01 0.25
1:53 am 01:53 Cloudy 48 8.9 47 8.3 96 96 Calm 30.00 1016 10 16 0.00 0.03
2:01 am 02:01 Cloudy 48 8.9 47 8.3 96 96 Calm 30.00 1016 10 16 0.00 0.00
2:53 am 02:53 Cloudy 47 8.3 47 8.3 100 100 NNW 7 11 29.99 1016 9 14 0.00 0.00
3:53 am 03:53 Cloudy 47 8.3 47 8.3 100 100 ENE 7 11 30.00 1016 10 16 0.00 0.00
4:33 am 04:33 Cloudy 47 8.3 47 8.3 100 100 ENE 5 7 30.00 1016 10 16 0.00 0.00
4:53 am 04:53 Cloudy 48 8.9 48 8.9 100 100 Calm 29.99 1016 10 16 0.00 0.00
5:46 am 05:46 Cloudy 48 9 48 9 100 100 Calm 30.00 1016 10 16 0.00 0.00
5:53 am 05:53 Cloudy 48 8.9 48 8.9 100 100 Calm 30.00 1016 10 16 0.00 0.00
6:53 am 06:53 Cloudy 48 8.9 48 8.9 100 100 ESE 5 7 30.01 1016 10 16 0.00 0.00
7:53 am 07:53 Cloudy 49 9.4 49 9.4 100 100 SE 3 6 30.01 1016 10 16 0.00 0.00
8:53 am 08:53 Cloudy 50 10 49 9.4 96 96 Calm 30.02 1017 10 16 0.00 0.00
9:48 am 09:48 Cloudy 52 11 48 9 88 88 W 3 6 30.00 1016 10 16 0.00 0.00
9:53 am 09:53 Cloudy 52 11.1 50 10 93 93 Calm 30.03 1017 10 16 0.00 0.00
10:15 am 10:15 Cloudy 52 11.1 49 9.4 89 89 Calm 30.00 1016 10 16 0.00 0.00
10:43 am 10:43 Cloudy 53 11.7 49 9.4 86 86 VRB 3 6 30.00 1016 10 16 0.00 0.00
10:53 am 10:53 Cloudy 54 12.2 49 9.4 83 83 NW 3 6 30.02 1017 10 16 0.00 0.00
11:53 am 11:53 Cloudy 57 13.9 51 10.6 81 81 VRB 3 6 30.00 1016 10 16 0.00 0.00
12:53 pm 12:53 Cloudy 59 15 52 11.1 78 78 NW 5 7 29.98 1015 10 16 0.00 0.00
1:03 pm 13:03 Cloudy 60 15.6 52 11.1 75 75 undefined N/A 29.91 1013 10 16 0.00 0.00
1:53 pm 13:53 Cloudy 62 16.7 53 11.7 73 73 undefined N/A 29.96 1014 10 16 0.00 0.00
2:27 pm 14:27 Cloudy 64 17.8 53 11.7 68 68 Calm 29.85 1011 10 16 0.00 0.00
2:53 pm 14:53 Cloudy 63 17.2 53 11.7 70 70 VRB 6 9 29.94 1014 10 16 0.00 0.00
3:22 pm 15:22 Cloudy 63 17 54 12 73 73 ESE 3 6 29.85 1011 10 16 0.00 0.00
3:53 pm 15:53 Cloudy 63 17.2 53 11.7 70 70 SE 8 13 29.93 1014 10 16 0.00 0.00
4:15 pm 16:15 Cloudy 62 16.7 53 11.7 73 73 SE 8 13 29.83 1010 10 16 0.00 0.00
4:53 pm 16:53 Partly Cloudy 64 17.8 53 11.7 68 68 ESE 12 19 29.91 1013 10 16 0.00 0.00
5:53 pm 17:53 Sunny 63 17.2 53 11.7 70 70 E 12 19 29.91 1013 10 16 0.00 0.00
6:53 pm 18:53 Mostly Sunny 61 16.1 53 11.7 75 75 E 8 13 29.92 1013 10 16 0.00 0.00
7:53 pm 19:53 Partly Cloudy 60 15.6 53 11.7 78 78 ESE 5 7 29.93 1014 10 16 0.00 0.00
8:53 pm 20:53 Cloudy 59 15 54 12.2 83 83 ESE 7 11 29.95 1014 10 16 0.00 0.00
9:53 pm 21:53 Cloudy with Light Rain 57 13.9 56 13.3 96 96 Calm 30.00 1016 9 14 0.01 0.25
10:53 pm 22:53 Cloudy with Light Rain 56 13.3 56 13.3 100 100 SSE 6 9 30.01 1016 7 11 0.02 0.51
11:53 pm 23:53 Cloudy with Light Rain 56 13.3 56 13.3 100 100 ESE 12 19 29.96 1015 9 14 0.02 0.51

Powered by AerisWeather